Flag for Uruguay Weather past 2 weeks in Maldonado, Uruguay

Now
66 °F

Clear.


Feels Like: 66 °F
Forecast: 64 / 77 °F
Wind: 10 mph from Southwest

Location: Capitan Corbeta

Current Time: Dec 18, 2014 at 5:44:58 AM

Latest Report: Dec 18, 2014 at 5:00 AM


Visibility: 10 mi

Pressure: 29.80 "Hg

Humidity: 83%

Dew point: 61 °F

Location of MaldonadoLocation

Historic Weather in Maldonado — Graph

°F

Maldonado temperature yesterday

Maximum temperature yesterday: 77 °F (at 4:00 PM)
Minimum temperature yesterday: 64 °F (at 11:00 PM)
Average temperature yesterday: 70 °F

Past Weeks' High & Low Weather Summary

 TemperatureHumidityPressure
High91 °F (Dec 6, 5:00 PM)100% (Dec 3, 5:00 AM)30.12 "Hg (Dec 3, 5:00 AM)
Low52 °F (Dec 4, 6:00 AM)35% (Dec 4, 1:00 PM)29.59 "Hg (Dec 9, 8:00 PM)
Average70 °F72%29.91 "Hg
* Reported Dec 3 5:00 AM — Dec 18 5:00 AM, Maldonado, Weather by CustomWeather, © 2014

Note: Actual official high and low records may vary slightly from our data, if they occured in-between our weather recording intervals... More about our weather records

Advertising

Maldonado weather history for previous 24 hours

 ConditionsComfort  
Time TempWeatherWind HumidityBarometerVisibility
5:00 AM
Dec 18
66 °FClear.10 mph83%29.80 "Hg10 mi
3:00 AM63 °FPassing clouds.3 mph94%29.80 "HgN/A
11:00 PM
Dec 17
64 °FPassing clouds.5 mph88%29.80 "HgN/A
9:00 PM70 °FPassing clouds.5 mph78%29.83 "HgN/A
8:00 PM72 °FPassing clouds.10 mph73%29.83 "HgN/A
7:00 PM73 °FPassing clouds.12 mph69%29.83 "HgN/A
6:00 PM73 °FPassing clouds.10 mph69%29.83 "HgN/A
4:00 PM77 °FPassing clouds.13 mph65%29.83 "HgN/A
3:00 PM75 °FScattered clouds.16 mph69%29.83 "HgN/A
2:00 PM75 °FScattered clouds.16 mph69%29.86 "HgN/A
1:00 PM73 °FScattered clouds.16 mph74%29.86 "HgN/A
12:00 PM73 °FPartly sunny.16 mph78%29.86 "HgN/A
11:00 AM73 °FScattered clouds.5 mph69%29.86 "HgN/A
10:00 AM73 °FPartly sunny.8 mph74%29.86 "HgN/A
9:00 AM72 °FPartly sunny.5 mph88%29.86 "HgN/A
8:00 AM70 °FFog.5 mph88%29.86 "Hg3 mi
7:00 AM68 °FFog.3 mph94%29.86 "Hg2 mi
6:00 AM66 °FFog.No wind94%29.86 "Hg3 mi
5:00 AM66 °FPassing clouds.No wind94%29.86 "HgN/A
Weather by CustomWeather, © 2014

See weather overviewHow to use our weather pages